Wind_Speed
49 49 49 49 49 48 48 49 48 48 48 46 44 41 38 35 34 33 31 28 25 23 25 24 24 22 19 21 24 23 21 20 20 20 22 23 24 27 29 30 32 34 33 33 33 30 24 20 17 16 15 16 16 14 13 11 11 11 10 10 8 7 6 6 5 3 2 2 1 1 1 2 4 5 5 5 5 4 3 3 4 5 6 8 9
48 49 49 49 49 48 47 47 47 46 46 45 42 39 36 33 32 32 30 27 24 24 25 24 23 21 19 20 23 24 22 21 20 20 21 22 24 26 28 30 31 33 33 31 31 30 27 22 19 17 16 16 16 14 13 11 10 10 10 9 8 6 5 5 4 2 2 2 2 2 1 0 1 2 4 5 6 6 5 4 4 4 4 5 7
46 47 48 48 48 47 46 46 46 45 44 43 41 38 34 32 32 31 29 26 25 26 26 24 22 20 18 20 23 24 23 22 20 20 21 22 23 25 27 29 30 32 32 30 29 30 28 25 22 19 17 17 16 15 13 11 10 10 10 9 8 7 6 5 3 2 1 2 2 2 3 3 2 1 1 2 4 5 6 6 6 6 6 6 6
44 45 45 45 46 45 44 45 45 44 43 42 39 36 32 30 31 30 27 25 26 27 25 22 20 19 18 19 23 25 24 22 20 19 20 21 22 25 27 28 29 31 32 30 28 28 28 26 24 21 18 17 16 15 13 11 9 9 9 9 8 7 6 4 3 2 2 1 0 1 1 2 2 2 1 1 1 3 4 5 7 7 8 8 8
41 42 42 42 42 42 42 42 42 42 41 39 37 33 29 28 29 28 26 25 26 26 24 21 19 18 18 20 23 25 24 22 19 19 20 20 22 24 26 28 29 30 31 30 28 27 27 27 25 23 20 18 16 14 12 11 9 8 8 9 9 8 6 4 3 3 3 2 2 2 2 1 1 0 1 1 1 2 3 4 5 6 7 8 9
38 39 39 39 38 38 38 38 38 37 36 36 33 29 26 25 26 25 24 24 25 25 23 21 18 17 18 20 22 25 24 22 19 20 19 19 21 23 26 27 28 29 30 30 28 26 26 26 26 24 22 19 17 15 13 11 9 7 8 9 9 8 6 5 5 4 4 4 3 3 3 2 1 1 2 2 3 4 5 6 6 7 8 8 9
35 36 38 37 34 34 33 32 31 31 32 32 28 23 21 21 22 22 22 23 24 24 22 20 18 16 18 20 22 24 24 22 20 19 18 19 20 23 25 26 27 29 30 30 28 26 25 26 26 25 24 22 18 16 14 12 10 8 8 8 8 8 7 7 6 6 5 5 4 4 3 3 2 2 2 3 4 5 6 7 9 10 10 10 10
31 33 36 35 31 30 28 26 25 27 28 26 21 19 19 21 22 21 22 23 23 23 22 20 19 16 16 19 21 23 23 22 20 19 18 18 20 22 24 25 26 28 29 30 29 27 26 25 25 26 25 23 20 17 15 13 11 9 8 8 8 8 8 8 8 7 7 6 6 5 5 4 3 3 4 5 5 6 7 8 10 11 12 13 13
26 30 33 31 28 27 23 21 21 22 23 21 21 21 21 21 21 20 21 21 22 22 22 21 20 17 15 18 21 23 24 23 21 18 18 18 19 21 23 25 26 27 29 30 29 28 26 25 25 25 26 25 22 17 15 13 11 10 9 8 8 10 10 9 9 9 9 8 8 7 7 6 6 6 6 7 7 8 8 9 11 12 14 15 16
21 24 28 27 25 22 19 18 17 19 21 23 23 21 18 18 18 19 19 20 21 22 22 22 20 17 16 18 22 23 24 24 21 18 18 18 19 21 23 24 25 27 28 30 29 28 27 26 25 25 26 27 23 19 16 13 11 10 8 7 8 9 10 10 10 10 10 10 9 9 9 9 9 9 9 10 10 10 11 11 12 13 15 16 17
17 17 20 23 21 19 17 16 15 18 22 22 20 18 17 16 17 18 18 18 19 22 23 23 21 18 17 18 21 23 24 23 20 19 19 18 19 21 22 24 25 26 28 30 30 29 28 26 24 24 26 27 24 21 18 15 12 9 7 6 7 9 11 11 11 11 11 11 11 10 10 11 11 11 12 12 12 12 13 13 14 15 16 17 18
15 14 17 18 17 18 17 16 16 17 19 19 18 17 16 16 17 18 18 17 18 22 23 23 21 20 18 18 20 21 23 23 21 21 20 18 19 21 22 24 25 26 27 29 30 29 28 27 24 23 24 26 25 23 21 18 14 10 9 8 8 10 13 13 13 12 12 11 11 11 12 12 13 13 14 14 14 14 15 15 15 16 17 18 18
17 17 18 17 16 18 17 17 20 19 16 16 16 17 18 18 18 17 16 17 19 22 23 22 21 20 19 19 19 20 22 23 22 22 20 19 20 21 23 24 24 26 27 29 29 29 28 27 25 23 23 24 25 24 22 20 15 12 11 9 9 12 13 14 14 13 13 12 12 13 13 14 14 15 15 15 15 15 16 16 16 17 18 18 19
18 19 19 18 18 19 16 14 20 23 21 20 19 20 20 20 18 17 16 18 22 24 24 22 20 19 17 17 18 19 21 22 23 22 20 20 21 22 23 24 24 26 27 28 29 28 27 27 25 23 23 24 24 23 22 19 17 16 14 12 12 14 15 15 15 14 14 14 14 14 15 16 16 16 17 17 17 17 17 17 17 18 18 19 19
19 19 19 19 20 20 16 13 18 26 27 25 23 22 21 20 18 18 18 20 24 27 25 23 20 18 16 15 16 18 20 22 23 22 21 21 22 23 24 24 24 26 28 28 28 27 27 27 26 23 22 22 24 24 21 18 17 18 16 14 13 14 15 16 16 15 15 15 16 16 16 17 17 18 18 18 18 17 17 17 18 19 18 19 19
20 19 20 21 21 21 18 15 18 25 29 28 27 25 23 22 20 20 22 22 24 28 26 23 21 20 18 15 15 17 20 23 24 23 22 22 22 23 24 24 25 26 28 28 28 26 26 27 26 23 22 22 23 23 21 19 19 19 17 15 14 14 15 17 17 17 16 17 17 17 17 18 18 19 19 18 18 17 17 18 19 19 19 19 19
21 20 21 20 19 22 19 16 19 25 29 29 28 28 26 25 24 25 25 22 23 27 27 24 22 20 18 16 16 18 21 23 24 25 24 23 22 23 24 24 25 28 29 28 28 27 26 26 25 23 22 21 22 23 21 21 21 21 19 16 15 15 15 16 17 17 17 17 18 19 19 19 19 19 19 19 18 18 18 18 19 19 19 19 19
22 21 21 21 21 23 20 18 21 25 30 31 29 29 28 28 29 28 26 23 22 24 25 25 24 21 19 18 18 19 21 24 25 26 25 23 23 24 25 24 26 29 29 28 27 27 26 26 25 23 22 22 22 23 23 22 22 24 22 18 15 15 15 16 16 17 18 20 20 21 21 20 20 20 20 20 19 19 19 19 19 19 19 19 18
25 25 24 24 25 25 22 20 22 24 30 33 32 31 31 30 31 29 26 24 23 22 23 24 25 24 22 21 21 21 22 25 27 27 26 25 24 23 24 25 28 29 28 27 27 27 27 26 25 23 22 22 22 23 24 23 23 24 24 21 16 14 15 15 16 18 21 22 23 23 23 22 21 21 21 21 20 20 20 19 19 19 19 19 18
28 28 27 25 25 26 25 24 21 24 30 34 34 34 34 33 31 29 28 27 26 24 23 24 26 27 25 24 25 26 27 28 28 28 27 26 25 25 25 28 29 29 28 27 27 27 28 27 25 23 22 22 23 24 25 25 25 25 25 23 18 15 14 15 17 20 23 24 24 24 24 23 22 21 22 22 21 20 20 19 19 19 19 18 18
31 30 29 27 27 26 27 26 24 25 30 33 35 35 33 32 31 30 31 31 28 26 24 25 27 29 27 26 27 28 29 30 29 28 28 27 27 27 27 29 30 29 28 27 27 28 29 28 26 23 22 22 23 24 25 26 25 25 25 24 20 17 15 15 16 19 21 22 23 23 24 23 22 22 22 22 21 20 20 19 18 18 18 18 17
32 32 32 32 32 30 27 26 25 27 29 32 35 35 32 33 33 32 33 33 30 27 24 25 28 29 28 28 28 28 29 29 29 28 28 28 28 27 28 30 30 30 28 27 26 28 29 30 27 24 22 23 23 24 25 26 26 26 26 25 22 18 17 16 16 17 19 20 21 22 22 22 22 23 22 21 21 20 19 18 17 17 18 18 18
34 34 34 35 36 33 29 27 27 27 30 32 35 36 35 35 35 33 33 34 33 28 23 25 28 28 28 28 27 27 28 28 28 28 28 27 27 27 29 31 31 31 29 27 26 27 30 30 28 24 23 23 24 25 25 26 26 26 27 26 23 20 19 18 17 17 18 19 20 20 20 20 21 21 21 20 20 19 18 18 17 18 19 19 20
36 37 36 36 36 35 32 32 33 33 33 33 34 36 35 35 34 33 33 34 34 28 24 26 29 28 28 28 27 27 28 28 28 28 27 27 27 28 30 32 32 31 29 27 26 27 30 31 28 25 23 23 24 25 25 25 25 26 27 27 25 22 21 20 19 19 19 20 20 19 18 18 18 19 19 19 19 19 18 18 18 19 19 20 20
37 41 39 37 36 35 35 35 36 37 36 35 35 35 35 34 32 31 31 32 32 30 28 29 29 29 29 28 29 29 29 30 30 30 29 29 30 31 32 33 33 32 30 28 27 28 30 31 29 26 24 24 24 25 26 26 25 25 26 27 26 24 22 21 21 20 20 20 20 19 18 17 17 17 18 19 19 19 19 19 19 19 20 20 21
37 43 43 39 37 36 36 36 35 36 37 37 37 37 36 34 31 30 28 30 32 31 31 30 30 30 32 33 33 33 33 34 33 33 34 33 33 33 33 35 34 33 30 28 28 29 30 31 30 27 25 24 25 26 27 26 25 25 25 26 26 24 23 22 21 21 20 20 20 20 19 18 17 17 18 19 19 19 19 19 20 20 21 21 22
38 44 44 42 40 38 36 35 36 37 37 37 37 38 38 35 31 29 28 31 34 33 31 30 30 32 34 35 35 35 36 37 37 37 37 34 33 33 34 35 35 34 31 29 29 30 30 32 31 28 26 25 26 26 27 27 26 25 25 25 26 25 23 22 21 20 20 20 20 20 20 19 18 18 19 19 19 20 20 20 21 21 22 23 24
39 44 46 44 42 41 39 37 37 38 39 39 39 39 40 37 33 31 32 34 37 36 34 32 31 33 35 36 38 38 39 38 37 37 35 34 35 36 36 35 35 34 32 30 30 30 31 32 32 30 27 27 27 27 27 27 26 25 25 25 26 25 23 22 20 19 19 19 19 19 19 19 19 19 19 19 20 20 20 21 21 22 23 24 25
40 43 47 47 45 44 43 42 40 41 42 42 42 40 39 37 35 35 36 38 38 38 36 35 35 35 36 38 39 41 40 39 38 37 37 39 40 38 35 34 34 33 31 30 31 31 31 32 33 31 29 28 28 28 28 28 27 26 25 25 25 26 24 22 21 20 19 19 19 19 19 19 20 20 20 20 20 21 21 21 22 23 23 24 25
43 43 45 48 48 46 46 46 45 44 44 45 42 39 38 37 38 38 38 38 38 38 37 38 39 37 37 39 41 42 42 40 40 40 42 43 41 36 33 33 32 31 30 30 32 33 32 32 33 32 31 30 29 29 29 29 28 28 26 25 25 26 25 23 22 21 21 21 21 21 20 20 20 20 21 21 21 22 22 22 23 24 24 25 25
47 45 44 46 48 49 49 50 49 47 45 45 43 40 39 38 38 38 38 38 38 38 38 39 41 39 39 40 43 44 42 40 39 40 41 41 37 34 33 33 32 32 31 32 33 34 33 32 33 34 33 31 31 31 31 30 30 29 27 25 25 26 26 25 24 23 23 23 23 23 23 23 22 22 21 22 22 22 23 24 25 26 26 26 27
49 47 45 45 46 50 51 51 52 51 48 45 44 43 42 40 38 36 37 38 37 37 38 41 42 43 43 44 46 47 44 41 39 38 39 38 35 34 34 34 34 34 34 34 34 34 35 34 35 36 35 33 32 32 32 31 31 30 29 27 26 26 27 27 26 25 24 24 24 24 24 24 24 24 24 24 24 24 25 25 26 27 28 28 29
50 48 47 46 45 48 51 49 49 51 51 46 43 44 44 43 40 37 37 37 37 38 40 42 43 44 44 45 47 48 48 46 43 41 41 39 36 35 35 36 36 36 36 36 36 36 37 37 37 37 36 34 34 34 34 33 32 32 31 29 28 27 27 28 29 28 26 25 25 25 25 25 25 25 25 26 26 26 27 28 28 29 29 30 31
50 49 48 48 46 47 49 48 45 46 51 50 46 45 46 46 43 41 40 39 39 41 42 42 41 41 40 42 44 46 48 48 47 44 42 38 35 33 34 34 34 35 37 38 39 40 41 41 40 38 37 36 35 36 35 34 33 33 32 31 29 29 29 29 30 31 30 29 28 27 27 27 27 28 28 28 29 29 29 30 30 31 31 32 33
51 50 49 49 47 46 46 46 43 42 47 50 49 47 48 48 46 44 43 42 42 43 44 42 41 40 40 41 43 44 45 45 44 42 38 34 31 30 30 30 31 33 37 39 42 43 43 43 41 39 38 37 37 37 37 36 34 33 33 32 31 31 31 30 31 33 33 33 32 32 31 31 31 31 31 31 32 32 33 33 33 33 34 34 36
53 51 50 50 48 46 46 45 43 41 43 46 48 48 49 50 50 49 48 47 46 47 47 46 44 43 43 42 42 42 42 41 39 38 34 31 30 31 31 31 31 33 36 39 41 42 42 42 40 39 39 39 39 38 38 37 35 35 34 33 33 33 33 32 32 33 35 36 35 35 36 36 37 36 36 36 36 37 37 37 37 37 37 38 39
56 53 52 52 50 47 47 47 45 43 43 44 46 47 48 49 50 51 51 51 51 50 49 48 47 45 44 43 40 37 36 37 37 36 34 32 32 34 35 35 35 36 37 38 38 38 38 38 38 39 39 39 39 39 39 38 36 35 34 34 34 35 35 34 34 34 36 37 37 38 38 39 40 41 41 41 41 42 42 42 42 41 41 42 43
58 55 53 54 52 49 47 48 47 46 46 46 47 49 49 48 48 48 48 50 53 53 51 50 50 49 49 47 44 37 33 34 36 36 35 34 36 38 39 39 39 39 39 40 39 38 37 37 38 39 40 40 40 39 38 38 37 36 35 35 35 35 35 35 35 36 37 37 38 39 40 40 42 43 44 44 44 44 45 46 46 46 47 47 47
58 56 55 55 54 51 48 48 48 48 49 50 52 53 53 51 50 47 45 46 50 52 53 52 53 54 53 51 49 44 39 37 38 38 38 37 38 41 42 42 42 42 42 42 41 40 39 39 40 41 42 42 40 39 37 38 38 37 36 36 36 36 35 35 36 37 38 38 40 41 42 42 43 44 45 46 46 46 48 49 48 49 50 51 52
59 57 57 56 55 53 50 49 49 47 48 52 54 55 55 55 53 49 46 45 47 51 53 52 53 54 54 53 52 50 48 46 42 41 40 40 41 43 44 44 45 45 45 44 44 43 43 43 44 44 45 43 41 41 40 39 39 39 38 39 38 36 35 35 36 37 38 39 40 42 44 45 47 47 48 48 48 49 50 51 50 51 53 54 55
60 58 58 56 56 55 53 52 51 48 47 50 53 54 55 55 54 50 48 47 48 50 52 52 53 53 52 53 52 52 54 53 48 45 44 44 45 45 46 48 49 48 47 46 47 47 48 48 47 46 46 45 44 45 43 41 40 40 41 41 38 36 35 36 37 38 38 39 40 42 45 47 48 50 51 51 52 52 52 52 53 53 54 56 56
61 58 58 58 57 56 54 53 53 52 51 51 53 54 54 54 53 50 50 50 49 50 52 53 55 55 53 53 53 53 56 57 56 53 52 51 50 50 51 52 52 50 50 49 49 50 50 49 48 48 47 47 46 46 44 41 41 42 42 41 38 37 37 38 38 39 40 41 42 44 46 47 49 50 52 52 53 53 52 53 54 55 56 57 58
62 58 57 58 58 57 56 55 54 54 54 55 56 57 56 54 52 48 49 51 51 50 51 53 56 57 56 54 55 56 58 59 58 58 58 57 57 56 56 56 55 54 52 51 50 50 49 49 49 50 50 50 48 46 45 44 43 44 44 43 40 39 40 40 40 41 42 44 46 46 47 48 49 50 51 52 53 53 53 54 55 55 57 58 60
62 59 58 58 58 58 57 56 55 54 54 56 58 58 58 57 54 50 48 51 53 52 52 53 55 56 55 55 56 57 59 58 58 58 59 59 59 58 57 57 57 55 54 52 51 50 50 50 51 53 53 53 50 48 49 49 48 48 47 46 43 41 42 43 44 44 46 48 49 49 49 50 50 51 51 52 53 54 54 55 56 57 59 60 62
62 61 59 57 56 56 56 55 54 54 55 57 57 57 56 57 56 54 51 51 54 55 54 55 55 55 54 54 55 56 57 57 57 57 58 58 58 57 57 57 56 55 54 53 52 52 52 52 53 55 56 55 53 51 51 52 52 51 50 49 46 44 45 47 48 49 50 50 51 52 52 53 53 53 52 54 55 55 56 57 59 60 61 62 63
62 63 60 58 55 54 55 55 54 55 57 58 57 56 56 55 55 55 55 56 58 57 57 57 57 57 57 55 56 56 56 56 56 57 57 57 57 58 57 57 56 55 55 54 53 54 54 55 56 57 57 57 56 54 53 53 54 53 53 52 50 48 49 51 52 53 53 53 54 55 55 56 57 56 55 56 57 56 57 60 61 61 63 64 65
61 63 62 59 57 55 54 54 55 57 58 58 57 57 57 56 55 56 57 59 60 58 58 59 59 60 59 58 59 59 58 57 57 57 58 58 58 59 58 58 58 57 57 56 56 56 57 57 58 59 58 58 57 55 55 55 55 55 54 55 54 53 55 56 55 56 56 56 57 58 58 59 60 61 59 58 59 58 58 60 63 63 64 66 68
57 62 64 62 59 57 55 55 56 58 59 58 58 58 59 58 58 59 60 61 61 59 59 59 59 59 59 59 60 60 60 59 58 57 59 60 60 60 60 60 60 60 60 59 58 58 58 58 59 60 59 59 58 57 56 56 57 56 55 57 58 58 59 59 59 59 59 60 61 61 61 61 62 64 62 60 61 61 59 61 64 66 66 68 70
54 58 62 63 61 59 57 55 56 58 60 61 60 61 62 61 60 62 62 61 62 61 61 61 60 59 59 59 60 60 60 60 58 58 60 61 62 62 61 62 62 62 62 61 60 60 59 59 60 61 61 60 59 58 57 57 58 57 57 59 60 61 62 62 62 62 63 64 65 64 64 63 64 65 65 63 63 63 62 62 64 67 68 70 72
52 55 59 62 62 61 59 57 57 59 61 63 64 64 65 64 64 64 64 63 63 63 64 64 64 62 62 62 63 63 63 62 61 61 62 63 63 63 63 63 63 64 64 63 63 62 61 61 62 63 62 62 61 60 59 59 59 59 60 62 63 64 65 65 65 65 65 67 68 68 66 66 66 66 66 66 65 65 65 66 66 67 70 73 75
52 54 56 60 62 63 62 60 59 60 62 64 65 65 65 66 66 66 66 65 64 64 65 67 67 66 66 67 68 67 67 66 64 64 65 65 65 64 64 65 65 66 66 65 65 64 64 64 66 66 64 63 62 62 61 61 62 63 64 65 65 66 67 68 68 68 67 69 71 71 68 68 68 67 67 68 67 66 67 68 69 70 72 76 79
Wind_Direction
271 271 271 272 272 272 274 276 277 278 279 280 280 282 284 286 288 288 289 286 279 277 279 277 275 272 274 277 273 269 267 273 283 293 304 314 322 326 331 333 337 342 343 343 345 347 348 343 338 334 332 332 335 341 342 336 325 317 313 314 315 314 327 340 345 4 25 37 24 313 272 250 241 236 234 230 227 223 221 220 222 228 231 233 235
273 272 272 273 273 273 274 276 277 278 279 280 281 282 283 284 285 284 284 280 274 277 277 272 270 269 272 275 273 270 266 270 279 290 303 314 321 326 331 333 337 342 343 343 345 348 351 348 342 335 331 330 332 336 341 340 330 321 315 311 310 307 316 329 333 355 33 52 63 61 56 73 234 235 234 235 233 231 227 221 216 215 217 220 226
275 274 274 274 274 274 275 276 276 277 278 279 280 281 282 282 280 278 276 273 273 276 273 268 267 267 270 273 272 269 264 266 276 288 301 313 320 325 329 332 335 340 343 343 344 348 351 351 347 340 333 330 331 335 339 342 335 325 317 311 306 302 306 315 313 329 15 53 70 76 75 75 81 94 168 215 224 228 230 230 229 226 223 219 219
277 276 276 276 276 276 276 276 276 276 276 277 278 279 279 278 275 272 267 267 272 274 269 264 264 265 269 273 272 269 263 264 273 285 299 310 318 323 327 331 334 338 342 342 342 346 350 353 352 347 339 333 332 335 337 341 337 326 317 309 303 298 296 299 290 292 309 320 25 82 82 80 78 73 81 138 201 214 222 228 232 235 235 232 230
278 278 279 279 279 278 277 276 276 276 276 276 275 275 274 272 269 265 261 264 269 269 265 260 259 261 265 269 271 271 265 262 269 281 296 309 316 322 326 329 332 337 341 342 341 343 348 352 354 353 347 339 335 334 334 336 335 325 314 305 298 294 288 284 275 279 291 286 271 253 245 237 234 267 282 269 251 237 233 233 235 236 237 236 235
279 281 282 281 281 280 278 276 276 275 275 272 270 268 266 264 262 260 258 262 266 264 260 256 255 258 263 266 270 271 266 261 266 279 293 307 315 321 325 328 331 336 340 342 341 340 344 349 353 355 353 346 339 333 331 330 329 322 312 301 293 290 281 271 267 268 275 278 266 252 245 238 236 258 274 274 265 257 252 251 251 248 245 241 239
281 284 283 282 281 280 278 277 275 272 270 267 264 262 261 260 258 256 256 259 261 259 255 253 251 254 261 267 271 272 267 262 265 277 293 307 314 320 324 326 329 334 338 341 340 337 339 344 349 353 354 352 344 335 331 328 326 321 312 299 288 283 276 265 260 259 263 266 259 248 236 225 231 263 284 284 278 271 265 263 262 259 255 251 245
279 281 280 282 283 281 280 277 273 267 262 259 259 262 263 262 256 251 252 254 257 256 253 250 248 250 259 268 274 276 272 265 265 277 293 304 311 319 322 324 327 332 336 339 339 337 335 338 343 349 352 353 349 339 331 327 323 320 314 300 285 280 275 262 254 255 257 256 252 245 236 232 243 267 283 285 283 279 276 273 271 268 263 259 254
274 278 281 284 284 283 280 272 266 263 260 259 263 268 265 257 250 244 247 253 257 256 252 249 247 248 256 267 274 278 276 268 266 276 291 298 308 316 319 320 325 330 333 337 338 336 334 332 337 344 349 351 350 343 332 325 320 318 316 307 291 283 277 263 254 256 257 254 252 250 247 248 257 271 280 282 280 278 279 279 278 276 271 266 262
265 274 284 288 285 280 272 261 261 266 268 266 262 260 255 246 240 241 249 256 260 257 252 247 244 244 249 261 270 275 275 270 266 275 284 293 305 312 314 317 323 327 331 335 337 335 333 330 332 339 345 349 351 349 339 326 317 315 312 306 296 286 279 267 259 259 259 256 255 254 254 257 264 272 278 280 279 277 280 282 282 280 278 273 268
253 255 273 285 283 274 262 254 260 269 269 263 254 247 242 240 242 249 257 262 266 263 255 246 242 244 246 253 263 269 274 272 269 273 278 288 301 307 310 314 320 325 329 332 335 334 332 329 330 335 342 347 351 352 345 330 316 308 297 292 286 278 275 272 268 265 262 259 258 258 258 261 266 272 277 278 278 277 280 283 283 283 281 278 273
236 226 248 268 273 267 258 251 257 266 266 258 251 246 243 247 254 260 264 269 277 271 258 248 244 248 251 253 258 265 273 273 272 272 275 286 298 303 307 311 317 323 327 330 332 333 330 328 329 333 339 345 349 351 347 336 321 302 289 286 274 268 271 274 274 271 265 262 263 265 265 266 268 271 275 276 276 276 279 282 283 284 283 282 279
226 216 226 242 247 249 252 255 257 258 257 256 256 256 255 254 256 260 265 275 282 274 259 250 248 252 257 258 258 264 272 276 277 275 276 284 293 298 302 307 314 320 324 327 330 330 328 326 328 331 335 342 347 349 348 340 328 310 293 279 261 260 267 272 274 273 269 268 271 273 272 269 269 271 273 274 274 275 278 281 283 284 285 285 283
225 215 216 231 235 236 242 250 256 254 251 257 264 264 258 254 253 255 264 277 281 271 258 250 250 253 258 260 259 264 273 279 282 281 279 283 288 293 297 303 311 316 321 325 327 327 325 324 326 328 331 338 343 347 349 342 329 320 304 280 261 260 265 270 272 273 271 272 276 276 274 272 270 270 270 271 271 273 276 278 280 282 283 284 284
218 211 211 224 229 235 241 238 247 253 252 256 264 262 252 248 248 251 264 279 278 268 256 249 249 251 253 258 263 266 271 278 281 282 282 284 285 288 292 300 307 313 317 321 324 324 321 322 324 325 327 333 339 344 348 343 332 327 314 291 272 265 265 267 270 272 273 274 277 277 276 274 272 271 270 270 271 272 274 276 278 280 281 283 284
213 209 208 214 221 234 246 243 246 254 254 257 263 260 247 240 244 256 271 278 273 265 257 252 250 250 248 251 263 271 274 276 279 280 283 285 286 286 289 296 304 309 313 317 320 320 318 318 320 321 322 326 334 340 343 338 334 333 324 305 286 272 264 265 267 271 273 275 277 279 278 276 274 273 272 272 272 272 273 275 277 278 279 281 282
212 210 205 207 219 230 239 246 248 254 258 258 260 257 244 241 251 266 272 270 269 266 259 254 253 252 251 252 263 273 274 273 274 276 279 283 287 286 285 291 299 305 310 313 315 316 315 315 316 317 318 320 327 333 335 333 333 336 332 319 299 282 268 265 267 271 275 278 280 283 282 279 277 275 274 273 273 272 272 273 275 276 277 279 280
209 208 209 215 223 226 228 238 243 250 259 258 255 250 242 244 258 269 269 263 267 268 259 255 255 253 251 252 258 266 269 269 269 270 273 280 287 287 285 288 296 302 307 309 312 313 311 311 312 312 313 316 321 327 330 330 330 332 335 330 311 291 274 267 268 273 278 282 284 285 285 283 280 277 275 274 272 271 272 273 275 275 275 276 279
208 206 216 224 224 223 223 231 236 241 254 257 252 246 242 248 260 265 263 263 269 270 261 257 257 256 253 252 253 256 260 263 264 267 273 278 284 286 285 288 294 301 304 306 308 309 309 308 308 308 310 312 316 322 325 326 327 329 333 333 323 301 282 271 270 273 277 281 283 285 286 285 282 279 275 273 271 272 274 277 278 276 274 274 277
213 209 220 225 223 226 224 227 232 236 248 252 249 247 247 252 259 259 258 265 271 268 263 264 263 260 258 257 257 257 258 262 266 270 274 276 279 281 283 288 294 299 300 303 305 305 307 307 305 305 306 309 312 317 321 324 326 327 329 331 328 314 294 278 270 269 274 279 283 285 286 285 282 278 275 273 273 275 277 279 279 277 274 274 277
218 212 217 222 224 228 225 226 230 233 243 250 249 247 248 252 256 256 259 265 268 265 266 270 268 265 263 262 261 262 263 266 269 273 274 276 277 279 284 289 293 296 296 298 300 302 305 305 303 303 303 305 309 314 319 322 323 325 327 329 328 321 307 290 279 275 278 282 285 286 286 284 281 276 275 275 276 277 278 279 277 274 273 273 275
222 213 215 219 220 222 222 225 228 233 242 249 248 247 248 251 253 256 259 261 263 263 266 270 270 268 267 266 265 266 266 268 270 272 274 276 277 281 286 290 292 292 292 293 295 299 303 303 302 300 300 302 305 310 317 320 321 322 324 327 327 324 316 305 295 289 288 289 290 289 287 284 280 277 277 277 277 278 278 277 273 270 269 271 273
223 218 220 222 219 217 218 219 222 231 239 243 247 250 253 254 252 253 255 256 257 258 261 269 270 266 267 268 269 270 270 271 272 273 274 275 277 282 287 289 290 289 288 288 291 295 301 302 300 297 296 299 303 308 314 317 318 319 321 324 325 323 321 315 309 303 300 299 298 294 289 283 280 279 278 278 278 279 279 276 273 270 271 273 275
226 222 225 227 222 218 218 216 215 224 233 239 247 253 254 252 248 250 252 250 251 252 258 268 268 263 264 270 273 275 275 274 273 273 274 276 280 284 288 289 288 287 285 285 287 292 298 300 299 295 293 296 300 304 310 314 315 315 318 321 322 321 321 319 315 312 309 307 305 300 294 287 284 282 280 279 280 281 281 280 279 278 278 279 280
229 225 225 227 225 222 221 219 217 222 230 237 243 248 249 248 245 246 248 248 249 254 260 266 267 262 262 265 267 269 270 271 272 274 276 280 284 287 289 289 288 285 282 282 284 288 294 298 297 293 290 293 297 301 306 310 311 311 314 317 319 318 318 318 316 314 312 310 309 306 302 297 293 289 285 284 284 285 286 286 286 286 287 287 288
230 226 225 225 225 225 224 220 218 222 227 231 236 241 245 246 243 241 244 248 250 254 258 262 263 262 261 262 263 263 265 267 269 273 277 281 284 287 289 289 286 282 280 279 281 286 292 296 296 292 288 289 294 298 302 306 308 308 309 313 316 315 314 315 315 314 312 311 310 310 308 305 302 297 293 291 290 291 292 293 293 293 294 295 296
229 225 225 225 224 225 224 220 219 222 226 228 231 235 240 242 240 238 239 244 248 250 254 257 258 258 261 263 265 265 266 267 268 271 275 277 282 287 288 286 283 279 278 278 279 283 289 294 295 291 287 286 290 294 298 304 306 305 305 308 312 312 310 310 311 311 312 312 312 312 312 310 307 304 301 299 298 298 299 299 300 300 300 301 301
229 225 223 225 226 224 222 220 221 224 227 229 231 234 237 238 237 237 236 239 245 249 251 254 254 256 259 262 263 265 266 267 268 270 272 275 284 290 286 280 277 275 275 275 276 281 286 292 294 291 286 284 287 291 295 300 304 303 301 303 307 309 306 304 307 308 308 311 314 315 314 313 310 308 305 304 304 304 304 304 304 304 303 303 302
229 227 223 224 227 226 224 222 223 226 228 230 232 235 236 235 234 237 238 239 242 246 250 253 254 255 257 260 262 264 266 268 270 272 274 279 287 290 281 272 271 271 272 272 275 278 284 291 293 291 286 283 284 288 292 297 301 301 299 298 301 305 305 301 300 302 304 308 312 314 315 314 313 311 309 307 306 306 306 305 305 303 302 302 301
230 230 226 224 226 228 227 226 225 227 231 233 233 233 233 233 233 236 239 240 239 241 246 252 256 257 258 261 263 263 265 269 273 276 278 281 286 283 273 269 269 269 270 272 274 277 282 290 294 291 285 282 282 286 290 294 298 300 298 295 295 299 303 302 298 297 300 303 306 308 310 313 314 313 312 311 309 307 305 304 303 302 301 301 301
230 231 231 229 227 227 229 229 228 229 233 236 235 232 231 232 234 235 236 238 239 240 244 250 256 258 259 260 261 262 264 268 274 277 279 282 283 277 270 269 269 270 270 271 275 279 282 289 294 291 285 281 282 284 287 291 295 298 297 293 290 293 298 301 299 297 298 301 303 304 306 308 310 311 312 311 310 308 305 303 301 300 300 300 300
231 231 232 233 231 229 228 229 230 230 232 236 237 234 232 232 234 236 235 236 240 244 249 253 256 258 260 260 261 263 264 267 272 275 277 280 279 273 270 269 270 270 270 272 275 279 282 289 293 290 285 281 281 283 285 288 292 295 296 292 289 288 291 295 297 297 297 299 301 302 304 305 306 307 308 309 308 307 306 304 302 301 301 301 301
232 231 231 233 234 232 230 230 231 231 230 233 237 238 237 235 236 237 237 238 242 248 253 257 259 262 266 266 265 265 265 265 268 272 274 273 273 272 271 271 271 272 273 275 277 279 283 289 292 289 284 280 280 281 283 286 288 292 294 293 289 287 286 288 291 294 295 296 297 299 301 302 303 304 305 306 306 307 307 306 306 305 304 304 303
233 231 229 229 233 234 233 233 233 232 230 231 235 239 240 240 238 239 240 242 244 248 253 258 263 267 270 270 270 269 267 266 267 270 269 268 270 273 274 275 277 278 279 280 280 282 285 288 290 287 282 278 278 280 283 284 286 289 292 293 292 288 285 285 287 290 292 293 295 296 297 298 298 299 300 301 303 304 305 306 306 307 307 306 305
233 232 228 227 230 232 233 233 235 234 231 232 236 239 241 242 241 241 244 245 246 250 254 258 262 267 270 271 273 274 271 267 265 264 263 264 268 272 275 278 281 284 284 283 282 283 285 287 287 285 280 276 277 280 283 284 285 286 289 292 293 291 288 284 285 287 290 291 293 294 296 296 296 297 298 298 299 300 301 302 304 304 304 304 304
234 233 230 227 228 230 230 231 234 235 234 234 237 241 243 244 245 246 248 250 250 252 255 257 261 265 266 267 273 277 272 264 259 257 258 261 265 267 271 276 283 288 287 285 284 284 285 286 285 282 279 277 278 281 283 284 284 285 286 290 293 294 292 289 286 286 288 290 291 293 294 295 295 296 298 299 299 299 300 302 303 303 302 301 301
234 234 230 227 227 229 229 229 230 234 235 234 236 238 240 242 244 248 251 252 252 252 254 256 257 259 259 262 270 275 268 258 255 255 255 259 263 267 272 276 283 290 290 287 287 287 287 286 284 282 280 279 280 282 282 283 283 283 284 289 292 294 296 295 290 286 286 288 290 292 293 294 295 297 298 299 299 300 301 302 303 303 303 303 303
233 234 231 227 227 229 229 228 229 232 234 235 236 237 237 238 241 245 249 251 251 250 251 252 253 253 255 259 265 268 263 256 256 255 255 259 265 269 273 276 282 290 291 288 287 288 289 288 285 283 281 280 281 282 283 283 282 281 283 287 292 294 297 297 293 288 286 287 289 290 292 293 294 295 297 298 300 301 301 301 302 303 304 304 305
230 231 230 228 227 229 229 228 229 233 235 236 238 239 239 240 241 243 247 251 250 249 248 249 251 253 255 257 260 261 260 257 258 257 257 262 267 270 272 276 282 289 291 289 288 288 289 289 287 285 282 280 280 281 283 285 283 281 282 286 291 293 294 296 295 292 290 289 289 290 291 292 293 294 295 297 299 300 300 301 302 303 303 304 305
227 229 229 228 227 228 228 228 230 236 239 239 240 241 241 242 242 244 248 252 251 248 247 247 250 251 253 254 256 258 259 260 261 261 261 265 268 269 273 277 282 288 290 288 288 289 290 288 287 285 281 279 278 280 284 287 285 282 283 287 290 291 291 293 295 295 294 294 293 294 294 294 294 294 295 296 297 298 299 300 301 302 303 303 304
225 227 228 228 227 227 227 227 228 233 239 241 242 243 242 242 244 246 250 252 251 248 246 247 250 251 252 252 253 255 257 259 260 261 264 267 269 271 276 279 281 284 286 285 287 289 290 289 286 283 279 277 278 281 284 288 287 282 283 287 287 287 290 292 293 294 295 296 297 298 298 297 296 295 295 295 296 297 298 300 301 302 303 303 303
222 224 227 227 226 225 226 227 229 232 236 239 242 243 243 243 245 248 250 251 251 249 247 247 250 252 252 252 252 252 254 257 259 261 263 266 270 273 276 278 279 281 282 284 285 287 288 287 283 281 278 277 281 285 286 289 287 283 285 288 286 284 287 290 291 291 291 294 298 300 299 297 297 296 295 295 296 297 298 299 300 301 303 303 303
221 222 225 227 226 225 225 226 229 233 236 238 241 242 242 242 245 248 250 250 250 249 248 248 250 252 253 253 253 253 254 257 258 260 263 265 268 272 274 275 276 278 281 282 282 283 284 282 280 279 277 279 285 288 286 288 288 286 287 288 285 284 286 288 288 289 289 292 296 298 297 297 296 296 295 296 296 296 297 298 299 301 302 302 302
220 222 224 226 227 227 225 226 229 233 235 239 241 242 242 242 243 246 249 251 250 250 250 250 251 253 255 255 255 255 256 258 259 260 263 265 267 270 272 273 275 277 278 278 278 279 279 279 279 279 278 281 286 286 285 287 288 288 289 287 285 285 285 286 288 289 290 292 294 295 296 296 295 295 296 296 296 296 297 298 299 299 300 300 301
219 221 224 225 226 227 226 227 229 232 235 238 241 243 244 244 244 245 246 248 248 249 251 253 254 255 256 257 257 257 257 259 260 261 263 265 267 269 270 272 273 274 274 275 276 277 277 277 278 279 279 282 284 284 284 286 287 288 288 287 286 286 285 287 289 291 292 293 294 295 295 295 295 296 297 297 296 297 298 298 298 298 299 299 299
220 221 223 225 226 226 227 227 228 231 234 237 240 243 245 245 246 246 246 246 247 248 250 253 255 256 257 258 258 259 259 260 262 263 264 266 267 268 269 270 270 270 271 273 274 274 275 276 277 278 279 281 282 283 284 284 285 287 287 287 287 286 286 288 290 291 293 294 295 295 295 296 296 296 297 297 297 297 297 297 297 297 298 298 299
223 222 223 225 226 226 227 228 228 230 233 236 239 242 244 245 247 248 248 249 249 249 249 252 255 256 258 259 260 261 262 262 264 265 265 266 266 267 267 268 268 268 270 271 271 271 273 274 275 276 278 280 281 282 283 283 284 286 286 286 287 286 287 289 291 292 293 293 294 294 295 296 296 296 297 297 296 296 296 296 295 296 297 297 298
227 225 225 227 228 228 228 228 229 231 233 236 238 241 243 244 245 247 249 250 252 252 250 251 254 256 258 259 260 261 262 263 263 263 263 263 264 264 265 266 267 268 269 269 270 270 271 272 274 276 278 280 280 281 282 283 284 285 284 285 286 287 288 290 291 292 292 293 294 294 295 296 296 296 297 297 296 295 295 294 294 295 296 296 296
230 229 228 229 229 230 231 231 231 232 235 237 239 241 244 244 244 245 247 248 250 251 250 251 252 254 256 257 258 259 260 261 261 260 260 261 262 263 264 265 266 267 268 268 269 270 271 272 273 275 278 280 280 281 282 283 284 284 283 283 285 287 289 290 291 291 292 293 294 294 295 296 296 296 297 297 296 295 294 293 293 294 294 295 296
232 232 231 230 230 230 231 233 234 235 236 238 239 241 243 244 243 244 246 247 247 248 249 250 251 252 255 257 257 258 259 259 259 259 260 261 261 262 263 264 265 266 267 268 269 270 271 272 274 276 278 279 280 281 282 283 283 283 283 283 285 287 288 289 290 291 292 292 292 293 295 296 295 296 296 295 294 294 294 293 293 293 293 295 297
231 233 233 233 231 230 229 231 233 234 235 237 239 240 243 244 244 244 246 247 248 248 249 251 252 254 256 257 257 258 259 259 260 260 261 262 262 263 264 264 265 266 268 269 270 271 272 273 275 277 278 279 280 281 282 283 283 283 283 284 286 287 287 288 289 290 291 290 290 293 295 295 295 295 294 294 294 293 293 292 293 294 296 297 299
Height
10783 10782 10781 10781 10781 10781 10779 10777 10776 10775 10775 10775 10778 10779 10780 10779 10779 10777 10777 10776 10775 10774 10772 10771 10770 10770 10771 10770 10769 10768 10767 10767 10766 10765 10764 10763 10761 10759 10757 10755 10753 10751 10748 10745 10742 10739 10736 10734 10733 10732 10731 10729 10728 10726 10725 10723 10722 10720 10719 10718 10717 10715 10714 10713 10713 10712 10711 10710 10709 10708 10707 10707 10707 10707 10706 10706 10706 10705 10705 10705 10705 10705 10705 10705 10706
10778 10777 10777 10776 10776 10776 10776 10774 10772 10771 10771 10771 10772 10775 10776 10776 10775 10774 10773 10773 10772 10771 10769 10768 10768 10768 10768 10768 10767 10766 10765 10765 10764 10763 10762 10761 10759 10757 10756 10754 10752 10750 10747 10745 10742 10739 10736 10733 10732 10731 10730 10728 10727 10726 10724 10722 10721 10720 10719 10717 10716 10715 10714 10713 10712 10711 10710 10709 10709 10708 10707 10707 10706 10706 10705 10705 10705 10704 10704 10704 10704 10704 10704 10704 10705
10772 10772 10772 10771 10771 10771 10771 10770 10768 10767 10767 10767 10768 10770 10771 10772 10771 10770 10769 10769 10769 10768 10766 10765 10765 10765 10765 10765 10765 10764 10763 10762 10762 10761 10760 10759 10758 10756 10754 10753 10751 10749 10746 10744 10741 10738 10735 10733 10731 10730 10728 10727 10726 10725 10723 10722 10720 10719 10718 10717 10716 10714 10713 10713 10712 10711 10710 10709 10708 10708 10707 10706 10706 10705 10705 10704 10704 10703 10703 10703 10703 10702 10703 10703 10703
10767 10767 10767 10766 10766 10767 10767 10765 10763 10763 10763 10763 10763 10765 10767 10768 10767 10766 10766 10766 10766 10765 10763 10763 10762 10762 10762 10762 10762 10762 10761 10761 10760 10759 10759 10757 10756 10754 10753 10752 10750 10748 10745 10743 10740 10738 10735 10733 10730 10729 10727 10726 10725 10724 10723 10721 10720 10718 10717 10716 10715 10714 10713 10712 10711 10710 10710 10709 10708 10707 10707 10706 10705 10705 10704 10704 10703 10703 10702 10702 10701 10701 10701 10701 10702
10763 10762 10762 10762 10762 10762 10761 10760 10759 10758 10758 10759 10759 10760 10762 10763 10763 10763 10763 10762 10762 10762 10761 10760 10760 10760 10759 10760 10760 10759 10759 10758 10758 10757 10757 10756 10754 10753 10751 10750 10748 10746 10744 10742 10739 10737 10735 10732 10730 10728 10726 10725 10724 10723 10722 10720 10719 10717 10716 10715 10714 10713 10712 10711 10710 10710 10709 10708 10707 10707 10706 10705 10705 10704 10704 10703 10703 10702 10702 10701 10700 10700 10700 10700 10700
10759 10758 10758 10758 10758 10757 10756 10756 10755 10754 10754 10754 10755 10756 10758 10759 10759 10759 10759 10759 10759 10759 10758 10758 10758 10757 10757 10757 10757 10757 10757 10756 10756 10755 10755 10754 10752 10751 10750 10748 10747 10745 10743 10740 10738 10736 10734 10732 10730 10727 10726 10724 10723 10722 10720 10719 10718 10716 10715 10714 10713 10712 10711 10710 10710 10709 10708 10707 10707 10706 10705 10705 10704 10704 10703 10702 10702 10701 10701 10700 10699 10699 10698 10698 10699
10757 10756 10755 10755 10754 10753 10752 10752 10751 10750 10749 10750 10751 10753 10754 10755 10756 10756 10756 10756 10756 10756 10756 10756 10756 10755 10755 10755 10755 10755 10755 10754 10754 10753 10753 10752 10750 10749 10748 10746 10745 10743 10741 10739 10737 10735 10733 10731 10729 10727 10725 10723 10721 10720 10719 10718 10717 10715 10714 10713 10712 10711 10710 10710 10709 10708 10707 10707 10706 10705 10705 10704 10703 10703 10702 10701 10700 10700 10699 10699 10698 10697 10697 10697 10697
10758 10757 10754 10752 10751 10750 10749 10749 10748 10747 10746 10747 10749 10750 10751 10752 10753 10753 10754 10754 10754 10754 10754 10754 10753 10753 10753 10753 10753 10753 10753 10752 10751 10751 10751 10750 10749 10748 10746 10745 10743 10742 10740 10738 10736 10734 10732 10730 10728 10726 10724 10722 10720 10719 10717 10716 10715 10714 10713 10712 10711 10710 10710 10709 10708 10707 10707 10706 10705 10705 10704 10703 10703 10702 10701 10700 10699 10699 10698 10697 10697 10696 10695 10695 10695
10757 10755 10752 10750 10749 10747 10747 10747 10746 10745 10745 10746 10746 10747 10748 10749 10750 10751 10751 10752 10752 10751 10751 10751 10751 10751 10751 10751 10751 10751 10751 10750 10749 10749 10748 10748 10747 10746 10745 10743 10742 10740 10738 10737 10735 10733 10731 10729 10727 10725 10723 10721 10719 10717 10716 10715 10714 10713 10712 10711 10711 10710 10709 10708 10707 10706 10706 10705 10704 10704 10703 10702 10702 10701 10700 10699 10698 10697 10696 10696 10695 10694 10694 10693 10693
10750 10750 10749 10747 10746 10745 10745 10745 10745 10745 10745 10744 10744 10744 10745 10746 10747 10749 10750 10750 10750 10749 10749 10749 10749 10749 10749 10749 10749 10749 10749 10748 10747 10747 10746 10745 10745 10744 10743 10742 10740 10739 10737 10735 10733 10732 10730 10728 10726 10724 10722 10720 10718 10716 10715 10714 10713 10712 10711 10711 10710 10709 10708 10707 10706 10706 10705 10704 10704 10703 10702 10701 10700 10699 10699 10698 10697 10696 10695 10694 10694 10693 10692 10691 10691
10744 10745 10746 10745 10743 10742 10743 10744 10744 10744 10744 10743 10743 10743 10743 10744 10746 10747 10748 10749 10748 10747 10747 10747 10747 10747 10747 10747 10747 10747 10747 10746 10745 10745 10744 10743 10743 10742 10741 10740 10739 10737 10736 10734 10732 10730 10729 10727 10725 10723 10721 10719 10717 10715 10714 10713 10712 10711 10710 10710 10709 10708 10707 10706 10705 10705 10704 10703 10703 10702 10701 10700 10699 10698 10697 10696 10695 10695 10694 10693 10692 10691 10690 10689 10689
10738 10740 10742 10742 10740 10740 10741 10742 10742 10742 10742 10742 10742 10742 10742 10743 10744 10745 10746 10747 10746 10745 10745 10745 10745 10745 10745 10745 10745 10745 10745 10744 10743 10742 10742 10741 10740 10740 10739 10738 10737 10736 10734 10732 10731 10729 10727 10726 10724 10722 10721 10718 10716 10714 10713 10712 10710 10709 10709 10708 10708 10707 10705 10705 10704 10703 10703 10702 10701 10700 10699 10698 10697 10697 10696 10695 10694 10693 10692 10691 10690 10689 10688 10688 10687
10733 10734 10736 10738 10738 10738 10738 10739 10740 10741 10741 10741 10741 10741 10741 10741 10742 10744 10744 10744 10744 10743 10743 10743 10743 10743 10743 10743 10743 10743 10743 10742 10741 10740 10740 10739 10738 10738 10737 10736 10735 10734 10732 10731 10729 10728 10726 10724 10723 10721 10720 10718 10715 10713 10712 10710 10709 10708 10707 10707 10706 10705 10704 10703 10702 10702 10701 10701 10700 10699 10698 10697 10696 10695 10694 10693 10692 10691 10690 10690 10689 10688 10687 10686 10685
10729 10731 10733 10735 10735 10734 10734 10736 10738 10739 10739 10739 10740 10740 10739 10740 10741 10741 10741 10742 10742 10741 10741 10741 10741 10741 10742 10741 10741 10741 10741 10740 10740 10739 10738 10737 10736 10736 10735 10734 10733 10732 10731 10729 10728 10726 10724 10723 10721 10720 10718 10717 10715 10713 10711 10709 10707 10707 10706 10705 10704 10703 10702 10701 10700 10700 10699 10699 10698 10697 10696 10695 10694 10694 10693 10692 10691 10690 10689 10688 10687 10686 10685 10684 10683
10725 10727 10731 10733 10733 10732 10732 10733 10736 10737 10737 10737 10738 10738 10738 10738 10738 10738 10739 10740 10740 10739 10738 10738 10739 10740 10740 10740 10739 10739 10739 10738 10738 10737 10736 10735 10735 10734 10733 10732 10731 10730 10729 10728 10726 10724 10723 10721 10720 10719 10717 10716 10714 10713 10710 10708 10707 10706 10704 10703 10702 10701 10701 10700 10699 10698 10697 10697 10696 10695 10694 10693 10693 10692 10691 10690 10689 10688 10687 10686 10685 10684 10683 10683 10682
10721 10723 10726 10729 10731 10731 10730 10731 10734 10735 10734 10735 10735 10736 10736 10736 10736 10736 10737 10738 10737 10736 10736 10736 10737 10737 10737 10737 10737 10737 10737 10736 10736 10735 10734 10733 10732 10732 10731 10730 10729 10728 10727 10726 10724 10723 10721 10720 10718 10717 10716 10715 10713 10712 10710 10708 10706 10704 10703 10701 10700 10700 10699 10698 10697 10696 10696 10695 10694 10693 10692 10691 10690 10689 10689 10688 10687 10686 10685 10685 10684 10683 10682 10681 10681
10719 10721 10723 10725 10727 10728 10729 10730 10732 10733 10731 10732 10733 10733 10734 10734 10733 10734 10735 10735 10735 10734 10734 10734 10735 10735 10735 10735 10734 10735 10734 10734 10734 10733 10732 10731 10730 10729 10729 10729 10728 10726 10725 10724 10722 10721 10720 10718 10717 10716 10714 10713 10712 10711 10709 10707 10705 10703 10701 10700 10698 10697 10697 10696 10695 10695 10694 10693 10692 10691 10690 10689 10688 10687 10686 10686 10685 10684 10683 10683 10682 10681 10680 10680 10679
10717 10718 10720 10722 10723 10725 10726 10728 10730 10731 10729 10728 10730 10731 10731 10731 10731 10731 10732 10733 10733 10732 10732 10732 10732 10732 10733 10733 10732 10732 10732 10731 10731 10730 10729 10729 10728 10727 10727 10726 10726 10724 10723 10721 10720 10719 10718 10717 10715 10714 10713 10711 10710 10708 10707 10706 10704 10701 10699 10698 10696 10695 10695 10694 10693 10692 10691 10690 10689 10688 10688 10687 10686 10685 10684 10684 10683 10682 10681 10681 10680 10679 10679 10678 10677
10715 10716 10716 10718 10719 10721 10723 10724 10726 10727 10726 10725 10726 10727 10727 10728 10728 10728 10729 10730 10730 10730 10730 10730 10730 10730 10730 10731 10730 10730 10729 10728 10728 10728 10727 10726 10725 10725 10724 10723 10723 10722 10721 10719 10717 10716 10715 10714 10713 10712 10711 10709 10708 10706 10705 10703 10701 10699 10698 10696 10694 10693 10692 10691 10691 10690 10689 10688 10687 10686 10685 10684 10684 10683 10682 10681 10681 10680 10679 10679 10678 10678 10677 10676 10676
10712 10713 10713 10714 10715 10717 10719 10720 10721 10721 10721 10721 10722 10723 10723 10724 10726 10725 10725 10726 10727 10727 10728 10728 10728 10727 10728 10728 10728 10727 10727 10726 10725 10726 10725 10724 10723 10722 10722 10721 10720 10720 10718 10716 10715 10714 10713 10712 10711 10710 10708 10707 10705 10704 10702 10701 10699 10697 10696 10694 10692 10691 10690 10689 10689 10688 10687 10686 10685 10684 10683 10682 10681 10681 10680 10679 10678 10678 10677 10677 10676 10676 10675 10675 10674
10709 10710 10710 10711 10712 10713 10715 10716 10716 10716 10716 10717 10717 10718 10720 10721 10723 10723 10722 10723 10724 10725 10726 10726 10726 10725 10725 10725 10725 10725 10725 10724 10723 10723 10722 10721 10720 10720 10719 10718 10717 10717 10716 10714 10713 10712 10711 10709 10708 10707 10706 10705 10703 10701 10700 10698 10696 10695 10693 10692 10690 10689 10688 10687 10686 10685 10684 10683 10682 10681 10680 10679 10678 10678 10677 10676 10676 10675 10675 10674 10674 10673 10673 10672 10672
10704 10706 10707 10708 10708 10708 10711 10712 10712 10711 10712 10713 10713 10713 10716 10718 10720 10721 10720 10720 10721 10722 10723 10723 10723 10722 10722 10722 10723 10722 10722 10722 10721 10720 10719 10718 10717 10717 10716 10715 10715 10714 10713 10712 10710 10709 10708 10707 10706 10705 10704 10702 10701 10699 10697 10696 10694 10692 10691 10690 10688 10687 10686 10685 10684 10683 10682 10681 10680 10678 10677 10676 10676 10675 10674 10674 10673 10673 10672 10672 10672 10671 10671 10670 10669
10700 10701 10702 10703 10703 10704 10706 10708 10708 10708 10709 10709 10708 10709 10711 10714 10717 10718 10718 10717 10718 10720 10721 10721 10721 10720 10720 10720 10720 10720 10719 10719 10718 10717 10716 10716 10715 10714 10714 10713 10712 10711 10710 10709 10708 10706 10706 10704 10703 10702 10701 10700 10699 10697 10695 10693 10692 10690 10689 10687 10686 10685 10684 10683 10682 10681 10680 10678 10677 10676 10675 10674 10673 10672 10672 10671 10671 10670 10670 10669 10669 10669 10668 10667 10667
10696 10697 10698 10699 10700 10701 10702 10703 10703 10704 10705 10705 10705 10706 10708 10711 10713 10715 10715 10715 10716 10718 10719 10719 10719 10719 10718 10718 10717 10717 10717 10716 10715 10714 10714 10713 10713 10712 10711 10710 10709 10709 10708 10706 10705 10704 10703 10702 10701 10700 10699 10698 10696 10695 10693 10691 10690 10688 10687 10685 10684 10682 10681 10680 10679 10678 10677 10676 10675 10673 10672 10671 10670 10670 10669 10669 10668 10668 10667 10667 10666 10666 10665 10664 10663
10692 10693 10693 10694 10696 10697 10698 10699 10699 10700 10701 10702 10703 10704 10705 10707 10710 10711 10712 10713 10714 10715 10716 10717 10717 10717 10716 10716 10715 10715 10714 10713 10712 10711 10711 10710 10710 10709 10708 10708 10706 10705 10704 10704 10703 10702 10700 10699 10698 10698 10697 10695 10694 10693 10691 10689 10688 10686 10685 10684 10682 10680 10679 10678 10677 10676 10675 10674 10672 10671 10670 10669 10668 10667 10666 10666 10665 10665 10664 10664 10663 10663 10662 10661 10660
10687 10687 10688 10689 10690 10692 10693 10694 10695 10696 10697 10699 10700 10701 10703 10704 10706 10708 10709 10710 10710 10711 10713 10715 10716 10715 10714 10713 10713 10712 10711 10710 10709 10708 10707 10707 10707 10706 10705 10704 10703 10702 10701 10701 10700 10699 10698 10696 10696 10695 10694 10693 10692 10690 10689 10687 10686 10684 10683 10682 10680 10679 10677 10676 10675 10674 10673 10671 10670 10669 10668 10667 10666 10665 10664 10663 10663 10662 10662 10661 10660 10660 10659 10658 10657
10681 10681 10682 10683 10685 10687 10689 10690 10691 10692 10693 10695 10696 10698 10699 10701 10702 10704 10706 10707 10706 10706 10709 10712 10713 10712 10710 10709 10709 10709 10708 10707 10706 10705 10704 10704 10703 10703 10702 10701 10700 10698 10697 10697 10697 10696 10695 10693 10693 10692 10691 10690 10689 10688 10686 10685 10683 10682 10681 10679 10678 10677 10675 10674 10673 10672 10671 10669 10668 10667 10666 10665 10663 10663 10662 10661 10661 10660 10659 10658 10658 10657 10656 10655 10654
10674 10674 10676 10677 10679 10681 10684 10686 10687 10688 10689 10690 10692 10694 10696 10698 10699 10700 10702 10703 10702 10703 10705 10708 10709 10708 10707 10706 10705 10705 10704 10703 10702 10701 10700 10700 10699 10699 10698 10697 10696 10695 10693 10693 10693 10693 10692 10691 10690 10689 10688 10687 10686 10685 10684 10682 10681 10679 10678 10677 10676 10675 10674 10672 10671 10670 10669 10668 10667 10665 10664 10663 10662 10661 10660 10659 10658 10657 10657 10656 10655 10654 10653 10652 10651
10667 10668 10670 10672 10673 10675 10678 10680 10682 10683 10684 10686 10688 10690 10693 10694 10696 10697 10698 10698 10698 10699 10702 10703 10705 10704 10703 10701 10701 10700 10700 10699 10698 10698 10697 10696 10695 10695 10694 10693 10692 10691 10690 10689 10689 10689 10689 10688 10686 10686 10685 10684 10683 10682 10681 10679 10678 10676 10675 10674 10673 10672 10671 10670 10669 10668 10667 10666 10665 10664 10662 10661 10660 10659 10658 10657 10656 10655 10655 10654 10653 10652 10650 10649 10648
10661 10662 10665 10666 10668 10670 10672 10674 10676 10677 10679 10681 10683 10686 10688 10690 10692 10693 10693 10694 10694 10696 10697 10698 10699 10699 10699 10698 10696 10695 10696 10695 10694 10694 10693 10692 10692 10691 10690 10689 10688 10688 10687 10686 10686 10685 10686 10685 10683 10682 10681 10680 10679 10678 10677 10676 10675 10674 10672 10671 10670 10670 10669 10668 10667 10666 10665 10664 10663 10662 10661 10660 10659 10658 10656 10655 10654 10653 10652 10651 10650 10649 10648 10647 10646
10654 10657 10659 10661 10662 10664 10666 10668 10670 10672 10674 10676 10678 10681 10683 10686 10687 10688 10688 10689 10690 10691 10693 10693 10694 10694 10695 10694 10692 10691 10692 10692 10690 10689 10688 10688 10688 10687 10686 10686 10685 10685 10684 10683 10682 10681 10681 10682 10680 10679 10678 10677 10676 10675 10674 10673 10672 10670 10669 10668 10667 10667 10666 10665 10664 10663 10662 10661 10660 10659 10658 10657 10656 10655 10654 10653 10652 10651 10649 10648 10647 10646 10645 10644 10643
10648 10650 10652 10655 10657 10659 10660 10662 10664 10666 10669 10671 10673 10676 10678 10680 10682 10683 10684 10685 10686 10686 10687 10688 10689 10689 10690 10690 10689 10688 10688 10688 10687 10685 10684 10684 10685 10684 10684 10683 10682 10682 10681 10680 10680 10678 10677 10678 10677 10675 10674 10673 10672 10671 10670 10670 10669 10667 10666 10665 10664 10664 10663 10662 10662 10661 10660 10659 10657 10656 10655 10655 10654 10653 10651 10650 10649 10648 10647 10646 10644 10643 10642 10641 10640
10641 10644 10646 10649 10651 10653 10654 10656 10658 10661 10664 10666 10669 10670 10672 10674 10676 10678 10680 10681 10681 10681 10682 10682 10683 10684 10684 10685 10685 10684 10684 10684 10683 10682 10681 10681 10681 10681 10681 10680 10680 10679 10678 10677 10677 10675 10673 10674 10673 10672 10670 10669 10668 10668 10667 10666 10665 10664 10662 10661 10660 10660 10660 10659 10658 10657 10657 10656 10654 10653 10652 10651 10650 10649 10648 10647 10646 10645 10644 10642 10641 10640 10638 10637 10636
10634 10637 10639 10642 10644 10647 10648 10650 10653 10656 10659 10662 10664 10665 10666 10669 10671 10673 10674 10674 10675 10676 10676 10678 10678 10678 10679 10679 10679 10680 10680 10680 10679 10679 10678 10678 10678 10678 10677 10677 10676 10676 10675 10674 10673 10671 10670 10670 10670 10668 10667 10665 10664 10663 10663 10662 10661 10660 10659 10658 10657 10656 10656 10655 10654 10654 10653 10652 10651 10650 10649 10648 10647 10646 10645 10644 10642 10641 10640 10639 10637 10636 10635 10633 10632
10626 10630 10633 10636 10639 10642 10644 10646 10648 10651 10653 10656 10659 10660 10662 10664 10666 10668 10669 10669 10670 10670 10672 10674 10674 10673 10674 10674 10674 10674 10675 10674 10674 10674 10674 10674 10674 10674 10674 10673 10673 10672 10671 10670 10669 10667 10666 10665 10665 10664 10663 10662 10660 10660 10659 10658 10658 10656 10655 10654 10653 10652 10652 10651 10650 10650 10649 10648 10647 10646 10645 10644 10643 10642 10641 10640 10638 10637 10636 10635 10633 10632 10631 10629 10628
10620 10624 10627 10630 10634 10637 10639 10642 10644 10646 10649 10651 10653 10655 10656 10658 10660 10662 10663 10664 10665 10666 10668 10670 10669 10668 10668 10669 10669 10669 10669 10669 10669 10669 10670 10670 10670 10670 10670 10669 10669 10668 10667 10666 10665 10663 10662 10661 10661 10660 10659 10658 10657 10656 10655 10655 10654 10653 10651 10650 10649 10648 10648 10647 10646 10645 10645 10644 10643 10642 10641 10639 10638 10637 10636 10635 10634 10633 10632 10630 10629 10628 10626 10625 10623
10613 10617 10621 10624 10629 10633 10635 10638 10642 10643 10645 10646 10648 10649 10650 10652 10654 10656 10658 10659 10660 10661 10663 10665 10665 10664 10663 10663 10664 10665 10664 10663 10664 10665 10666 10666 10666 10665 10665 10665 10665 10664 10663 10662 10661 10659 10659 10658 10656 10655 10655 10654 10653 10652 10652 10651 10650 10649 10647 10647 10646 10645 10644 10643 10642 10641 10640 10639 10638 10637 10636 10634 10633 10632 10631 10630 10629 10628 10627 10625 10624 10622 10621 10620 10618
10606 10610 10615 10618 10622 10627 10631 10635 10639 10640 10640 10641 10641 10642 10644 10646 10649 10651 10653 10653 10654 10656 10658 10659 10658 10659 10659 10659 10660 10661 10660 10659 10660 10661 10661 10661 10661 10661 10661 10661 10661 10660 10659 10658 10656 10655 10655 10654 10653 10651 10650 10649 10649 10648 10647 10646 10645 10645 10644 10643 10642 10641 10640 10639 10637 10636 10635 10635 10633 10632 10631 10630 10628 10627 10626 10625 10624 10623 10622 10620 10618 10617 10615 10614 10612
10599 10603 10608 10612 10616 10621 10626 10631 10635 10635 10634 10634 10635 10636 10638 10641 10643 10646 10647 10647 10648 10650 10651 10652 10652 10653 10654 10654 10655 10656 10656 10655 10655 10656 10656 10656 10656 10656 10656 10656 10656 10656 10655 10653 10652 10651 10651 10650 10649 10647 10646 10644 10644 10643 10642 10642 10641 10640 10640 10639 10638 10637 10636 10634 10633 10631 10630 10630 10629 10627 10626 10625 10623 10622 10621 10619 10618 10617 10616 10614 10612 10611 10609 10607 10605
10594 10597 10601 10605 10609 10615 10620 10624 10628 10628 10628 10628 10629 10630 10633 10635 10638 10641 10642 10642 10643 10644 10645 10645 10645 10646 10648 10649 10650 10650 10650 10649 10650 10651 10651 10650 10650 10650 10651 10651 10651 10651 10650 10649 10648 10647 10646 10645 10643 10642 10640 10639 10638 10638 10637 10637 10636 10635 10634 10634 10634 10632 10631 10630 10628 10627 10625 10625 10624 10622 10621 10619 10618 10617 10615 10614 10613 10612 10610 10608 10606 10605 10603 10601 10599
10588 10591 10594 10598 10602 10607 10613 10617 10619 10620 10620 10621 10622 10624 10627 10629 10632 10636 10637 10637 10637 10638 10638 10638 10638 10640 10642 10643 10644 10644 10643 10643 10645 10646 10646 10645 10644 10646 10646 10645 10646 10646 10645 10644 10644 10643 10641 10639 10636 10635 10634 10633 10633 10633 10633 10632 10631 10630 10629 10629 10629 10627 10626 10625 10623 10622 10621 10620 10618 10617 10616 10614 10612 10611 10609 10608 10607 10606 10604 10602 10600 10598 10596 10594 10592
10581 10584 10587 10591 10595 10600 10606 10610 10612 10612 10613 10614 10615 10617 10620 10623 10626 10630 10632 10631 10631 10632 10632 10632 10632 10633 10635 10637 10638 10638 10636 10637 10640 10641 10640 10640 10640 10641 10641 10640 10640 10640 10639 10640 10640 10638 10636 10633 10629 10627 10626 10627 10628 10628 10628 10627 10626 10624 10624 10624 10623 10622 10621 10620 10619 10617 10616 10614 10613 10612 10610 10608 10607 10605 10603 10602 10601 10599 10598 10596 10593 10592 10590 10587 10585
10574 10578 10581 10584 10588 10594 10599 10602 10604 10605 10606 10608 10608 10610 10613 10617 10621 10625 10626 10625 10625 10626 10627 10627 10626 10627 10629 10631 10631 10631 10631 10632 10634 10634 10635 10634 10634 10635 10635 10634 10634 10634 10634 10635 10635 10634 10631 10627 10623 10620 10619 10620 10623 10623 10621 10621 10620 10619 10618 10618 10618 10617 10616 10615 10614 10612 10610 10609 10608 10606 10604 10602 10601 10599 10597 10596 10594 10592 10591 10589 10587 10585 10583 10580 10578
10568 10572 10575 10578 10582 10587 10591 10594 10597 10599 10600 10601 10601 10602 10606 10610 10615 10619 10621 10620 10619 10620 10621 10620 10620 10621 10623 10624 10624 10625 10625 10626 10628 10628 10628 10628 10628 10629 10629 10629 10629 10629 10629 10629 10629 10629 10627 10623 10617 10614 10612 10613 10617 10618 10615 10615 10614 10613 10612 10612 10612 10612 10610 10609 10608 10606 10605 10603 10602 10600 10598 10596 10595 10593 10591 10590 10588 10586 10584 10582 10580 10578 10576 10574 10571
10562 10566 10569 10572 10576 10580 10583 10587 10590 10592 10593 10593 10593 10596 10600 10603 10608 10614 10616 10614 10612 10613 10614 10613 10613 10615 10616 10617 10617 10618 10619 10620 10621 10621 10621 10621 10622 10622 10623 10623 10623 10624 10623 10623 10622 10622 10621 10619 10613 10609 10608 10608 10611 10612 10610 10609 10608 10607 10606 10605 10605 10605 10604 10603 10602 10600 10599 10597 10595 10593 10592 10589 10587 10586 10585 10583 10580 10579 10578 10575 10573 10571 10568 10566 10564
10555 10559 10562 10566 10570 10573 10576 10580 10583 10585 10586 10586 10588 10590 10593 10597 10601 10605 10607 10606 10604 10605 10607 10606 10607 10608 10609 10610 10611 10611 10612 10613 10613 10614 10614 10614 10615 10615 10616 10617 10617 10617 10617 10617 10617 10615 10614 10613 10609 10605 10604 10604 10604 10605 10605 10603 10601 10601 10600 10598 10598 10599 10598 10596 10595 10593 10592 10590 10588 10586 10584 10582 10579 10578 10579 10577 10573 10573 10571 10567 10565 10564 10561 10558 10556
10549 10552 10556 10559 10563 10566 10569 10573 10576 10578 10579 10580 10583 10584 10586 10590 10594 10596 10597 10597 10596 10598 10599 10599 10599 10600 10602 10604 10604 10603 10605 10605 10606 10606 10606 10607 10607 10608 10609 10609 10609 10610 10610 10610 10610 10609 10608 10606 10603 10600 10600 10600 10599 10599 10598 10596 10595 10595 10594 10591 10591 10591 10591 10590 10588 10587 10585 10584 10582 10580 10578 10576 10571 10569 10571 10570 10566 10566 10566 10561 10556 10555 10554 10551 10547
10542 10545 10549 10552 10556 10559 10562 10566 10569 10571 10572 10574 10576 10578 10579 10583 10585 10586 10587 10588 10588 10590 10591 10592 10592 10593 10595 10597 10596 10595 10596 10598 10598 10599 10599 10599 10599 10600 10601 10601 10601 10602 10602 10602 10602 10602 10601 10599 10596 10594 10594 10594 10593 10592 10591 10589 10588 10588 10587 10585 10584 10583 10583 10582 10581 10579 10577 10575 10574 10573 10572 10571 10566 10561 10561 10562 10559 10557 10559 10556 10550 10547 10545 10543 10539
10535 10537 10541 10545 10548 10552 10555 10559 10562 10564 10566 10567 10569 10571 10572 10575 10577 10577 10578 10580 10581 10582 10583 10584 10586 10586 10587 10588 10589 10588 10589 10589 10590 10591 10590 10591 10591 10592 10592 10592 10592 10593 10593 10593 10594 10593 10593 10592 10589 10588 10587 10587 10586 10585 10584 10583 10581 10580 10579 10578 10577 10576 10574 10574 10573 10571 10569 10566 10565 10564 10564 10563 10560 10555 10552 10553 10551 10549 10548 10548 10544 10540 10537 10534 10531
10527 10529 10532 10536 10540 10544 10547 10551 10554 10557 10558 10560 10562 10564 10565 10568 10569 10569 10569 10571 10572 10573 10575 10576 10578 10579 10579 10579 10580 10580 10580 10581 10582 10583 10582 10582 10583 10583 10584 10584 10584 10584 10584 10584 10585 10585 10585 10584 10582 10581 10580 10579 10578 10577 10576 10575 10574 10573 10571 10571 10570 10568 10566 10566 10565 10564 10563 10559 10555 10555 10556 10554 10552 10549 10545 10542 10542 10541 10538 10536 10535 10533 10530 10525 10521
10519 10521 10524 10527 10531 10534 10538 10543 10546 10549 10551 10553 10555 10557 10558 10559 10560 10561 10561 10562 10563 10565 10566 10567 10569 10572 10571 10569 10569 10571 10572 10573 10574 10574 10574 10574 10575 10575 10575 10575 10575 10575 10575 10575 10575 10576 10576 10576 10574 10573 10573 10572 10570 10569 10568 10567 10566 10564 10563 10563 10562 10560 10559 10558 10556 10557 10558 10553 10546 10546 10548 10546 10543 10541 10537 10533 10532 10532 10530 10527 10524 10523 10520 10516 10511